• In Uzbekistan
  • List of Countries
  • For 7 days
  • Water Temperature
  • Satellite Maps
  • Weather Map
  • Weather Widgets
  • user-avatar
    Login

    Hourly Weather Saurimo

    Today, 23 March, Thursday

    Time Temperature Precipitation Wind Pressure Humidity
    00:00 +19°C° 0.8 mm 0 mps 669 mmHg 93%
    01:00 +21°C° 0 mm 1 mps 669 mmHg 93%
    02:00 +21°C° 0.4 mm 1 mps 669 mmHg 93%
    03:00 +21°C° 0.4 mm 1 mps 669 mmHg 92%
    04:00 +21°C° 0.4 mm 1 mps 669 mmHg 91%
    05:00 +22°C° 0.1 mm 1 mps 670 mmHg 91%
    06:00 +22°C° 0.1 mm 1 mps 671 mmHg 90%
    07:00 +23°C° 0 mm 1 mps 671 mmHg 89%
    08:00 +24°C° 0.2 mm 1 mps 672 mmHg 83%
    09:00 +26°C° 0.2 mm 1 mps 672 mmHg 77%
    10:00 +27°C° 0.2 mm 1 mps 672 mmHg 71%
    11:00 +27°C° 0.5 mm 1 mps 672 mmHg 72%
    12:00 +27°C° 0.5 mm 1 mps 671 mmHg 73%
    13:00 +27°C° 0.5 mm 2 mps 671 mmHg 74%
    14:00 +26°C° 0.5 mm 1 mps 670 mmHg 76%
    15:00 +26°C° 0.5 mm 1 mps 670 mmHg 78%
    16:00 +26°C° 0.5 mm 1 mps 669 mmHg 80%
    17:00 +24°C° 0.3 mm 1 mps 669 mmHg 84%
    18:00 +23°C° 0.3 mm 1 mps 670 mmHg 88%
    19:00 +22°C° 0.3 mm 1 mps 670 mmHg 92%
    20:00 +22°C° 0.1 mm 1 mps 670 mmHg 93%
    21:00 +22°C° 0.1 mm 1 mps 670 mmHg 94%
    22:00 +21°C° 0.1 mm 1 mps 671 mmHg 96%
    23:00 +21°C° 0.6 mm 1 mps 670 mmHg 96%

    Tomorrow, 24 March, Friday

    Time Temperature Precipitation Wind Pressure Humidity
    00:00 +21°C° 0.6 mm 1 mps 670 mmHg 97%
    01:00 +21°C° 0.6 mm 1 mps 670 mmHg 98%
    02:00 +21°C° 0.4 mm 1 mps 670 mmHg 98%
    03:00 +21°C° 0.4 mm 1 mps 670 mmHg 98%
    04:00 +21°C° 0.4 mm 1 mps 670 mmHg 99%
    05:00 +21°C° 0.1 mm 1 mps 670 mmHg 98%
    06:00 +21°C° 0.1 mm 1 mps 671 mmHg 97%
    07:00 +22°C° 0.1 mm 1 mps 671 mmHg 96%
    08:00 +23°C° 0.1 mm 1 mps 672 mmHg 89%
    09:00 +25°C° 0.1 mm 1 mps 672 mmHg 81%
    10:00 +26°C° 0.1 mm 1 mps 673 mmHg 74%
    11:00 +27°C° 0.3 mm 1 mps 672 mmHg 71%
    12:00 +27°C° 0.3 mm 1 mps 672 mmHg 69%
    13:00 +28°C° 0.3 mm 1 mps 671 mmHg 66%
    14:00 +28°C° 0.5 mm 1 mps 671 mmHg 70%
    15:00 +27°C° 0.5 mm 1 mps 670 mmHg 73%
    16:00 +27°C° 0.5 mm 1 mps 670 mmHg 76%
    17:00 +25°C° 1.3 mm 1 mps 670 mmHg 82%
    18:00 +24°C° 1.3 mm 1 mps 670 mmHg 88%
    19:00 +22°C° 1.3 mm 1 mps 670 mmHg 94%
    20:00 +22°C° 0.2 mm 1 mps 671 mmHg 95%
    21:00 +22°C° 0.2 mm 1 mps 671 mmHg 96%
    22:00 +22°C° 0.2 mm 1 mps 672 mmHg 96%
    23:00 +22°C° 0.1 mm 1 mps 671 mmHg 97%

    Day after tomorrow, 25 March, Saturday

    Time Temperature Precipitation Wind Pressure Humidity
    00:00 +21°C° 0.1 mm 1 mps 671 mmHg 97%
    01:00 +21°C° 0.1 mm 1 mps 670 mmHg 98%
    02:00 +21°C° 0 mm 1 mps 670 mmHg 98%
    03:00 +21°C° 0 mm 1 mps 670 mmHg 98%
    04:00 +21°C° 0 mm 1 mps 670 mmHg 98%
    05:00 +21°C° 0 mm 1 mps 670 mmHg 97%
    06:00 +22°C° 0 mm 1 mps 671 mmHg 96%
    07:00 +22°C° 0 mm 1 mps 671 mmHg 95%
    08:00 +24°C° 0.2 mm 1 mps 672 mmHg 86%
    09:00 +26°C° 0.2 mm 1 mps 673 mmHg 77%
    10:00 +28°C° 0.2 mm 2 mps 673 mmHg 67%
    11:00 +29°C° 0.2 mm 1 mps 673 mmHg 63%
    12:00 +30°C° 0.2 mm 1 mps 672 mmHg 58%
    13:00 +32°C° 0.2 mm 1 mps 672 mmHg 53%
    14:00 +31°C° 0.2 mm 1 mps 671 mmHg 57%
    15:00 +30°C° 0.2 mm 1 mps 670 mmHg 60%
    16:00 +30°C° 0.2 mm 1 mps 669 mmHg 64%
    17:00 +26°C° 0.2 mm 0 mps 669 mmHg 70%
    18:00 +23°C° 0.2 mm 0 mps 669 mmHg 77%
    19:00 +21°C° 0.2 mm 0 mps 669 mmHg 83%
    20:00 +21°C° 0.4 mm 0 mps 670 mmHg 84%
    21:00 +21°C° 0.4 mm 0 mps 670 mmHg 85%
    22:00 +23°C° 0.4 mm 1 mps 670 mmHg 86%
    23:00 +23°C° 0 mm 1 mps 670 mmHg 87%

    26 March, Sunday

    Time Temperature Precipitation Wind Pressure Humidity
    00:00 +22°C° 0 mm 1 mps 670 mmHg 88%
    01:00 +22°C° 0 mm 1 mps 670 mmHg 88%
    02:00 +22°C° 0 mm 1 mps 669 mmHg 89%
    03:00 +22°C° 0 mm 1 mps 669 mmHg 90%
    04:00 +21°C° 0 mm 1 mps 669 mmHg 90%
    05:00 +22°C° 0 mm 1 mps 670 mmHg 90%
    06:00 +22°C° 0 mm 1 mps 670 mmHg 90%
    07:00 +22°C° 0 mm 1 mps 671 mmHg 89%
    08:00 +24°C° 0.1 mm 1 mps 672 mmHg 85%
    09:00 +25°C° 0.1 mm 1 mps 672 mmHg 80%
    10:00 +26°C° 0.1 mm 1 mps 672 mmHg 76%
    11:00 +27°C° 0.2 mm 1 mps 672 mmHg 70%
    12:00 +28°C° 0.2 mm 1 mps 671 mmHg 63%
    13:00 +30°C° 0.2 mm 2 mps 670 mmHg 57%
    14:00 +29°C° 0.1 mm 1 mps 670 mmHg 60%
    15:00 +29°C° 0.1 mm 1 mps 670 mmHg 64%
    16:00 +28°C° 0.1 mm 1 mps 669 mmHg 67%
    17:00 +27°C° 0 mm 1 mps 669 mmHg 72%
    18:00 +25°C° 0 mm 1 mps 669 mmHg 77%
    19:00 +23°C° 0 mm 1 mps 669 mmHg 82%
    20:00 +23°C° 0.2 mm 1 mps 670 mmHg 82%
    21:00 +23°C° 0.2 mm 1 mps 670 mmHg 82%
    22:00 +23°C° 0.2 mm 1 mps 670 mmHg 82%
    23:00 +22°C° 1.1 mm 1 mps 670 mmHg 85%

    27 March, Monday

    Time Temperature Precipitation Wind Pressure Humidity
    00:00 +22°C° 1.1 mm 1 mps 670 mmHg 88%
    01:00 +21°C° 1.1 mm 1 mps 669 mmHg 92%
    02:00 +21°C° 0.1 mm 1 mps 669 mmHg 92%
    03:00 +21°C° 0.1 mm 1 mps 669 mmHg 93%
    04:00 +21°C° 0.1 mm 1 mps 669 mmHg 94%
    05:00 +21°C° 0 mm 1 mps 670 mmHg 93%
    06:00 +22°C° 0 mm 1 mps 670 mmHg 92%
    07:00 +22°C° 0 mm 1 mps 671 mmHg 91%
    08:00 +24°C° 0 mm 2 mps 672 mmHg 83%
    09:00 +26°C° 0 mm 2 mps 672 mmHg 75%
    10:00 +28°C° 0 mm 2 mps 672 mmHg 66%
    11:00 +28°C° 0.2 mm 2 mps 671 mmHg 64%
    12:00 +29°C° 0.2 mm 2 mps 671 mmHg 61%
    13:00 +30°C° 0.2 mm 2 mps 670 mmHg 59%
    14:00 +29°C° 0.4 mm 1 mps 670 mmHg 64%
    15:00 +28°C° 0.4 mm 1 mps 669 mmHg 69%
    16:00 +28°C° 0.4 mm 1 mps 669 mmHg 73%
    17:00 +26°C° 0.1 mm 1 mps 669 mmHg 79%
    18:00 +23°C° 0.1 mm 0 mps 669 mmHg 84%
    19:00 +21°C° 0.1 mm 0 mps 670 mmHg 89%
    20:00 +21°C° 0 mm 0 mps 670 mmHg 89%
    21:00 +23°C° 0 mm 1 mps 670 mmHg 89%
    22:00 +23°C° 0 mm 1 mps 670 mmHg 89%
    23:00 +22°C° 0.5 mm 1 mps 670 mmHg 90%

    28 March, Tuesday

    Time Temperature Precipitation Wind Pressure Humidity
    00:00 +22°C° 0.5 mm 1 mps 670 mmHg 91%
    01:00 +22°C° 0.5 mm 1 mps 669 mmHg 92%
    02:00 +22°C° 1.4 mm 1 mps 669 mmHg 93%
    03:00 +21°C° 1.4 mm 1 mps 669 mmHg 95%
    04:00 +21°C° 1.4 mm 1 mps 669 mmHg 97%
    05:00 +21°C° 1.1 mm 1 mps 670 mmHg 96%
    06:00 +20°C° 1.1 mm 2 mps 671 mmHg 95%
    07:00 +21°C° 1.1 mm 2 mps 671 mmHg 94%
    08:00 +23°C° 0 mm 2 mps 671 mmHg 86%
    09:00 +25°C° 0 mm 2 mps 672 mmHg 78%
    10:00 +27°C° 0 mm 3 mps 672 mmHg 70%
    11:00 +28°C° 0.2 mm 3 mps 671 mmHg 65%
    12:00 +29°C° 0.2 mm 3 mps 671 mmHg 61%
    13:00 +30°C° 0.2 mm 3 mps 670 mmHg 56%
    14:00 +30°C° 0.2 mm 2 mps 670 mmHg 60%
    15:00 +29°C° 0.2 mm 2 mps 669 mmHg 63%
    16:00 +29°C° 0.2 mm 2 mps 669 mmHg 67%
    17:00 +27°C° 0 mm 2 mps 669 mmHg 72%
    18:00 +25°C° 0 mm 1 mps 669 mmHg 78%
    19:00 +24°C° 0 mm 1 mps 669 mmHg 84%
    20:00 +23°C° 0 mm 1 mps 670 mmHg 85%
    21:00 +23°C° 0 mm 1 mps 670 mmHg 87%
    22:00 +22°C° 0 mm 1 mps 670 mmHg 88%
    23:00 +22°C° 0 mm 1 mps 669 mmHg 89%
    Show more